Regional Weather Roundup
Issued by NWS

Home | Current Version | Previous Version | Graphics & Text | Print | Product List | Glossary On
Versions: 1 2 3 4 5 6 7 8 9 10 11 12 13 14 15 16 17 18 19 20 21 22 23 24 25 26 27 28 29 30 31 32 33 34 35 36 37 38 39 40 41 42 43 44 45 46 47 48 49
000
ASUS45 KSLC 301810
RWRUT

UTAH REGIONAL WEATHER ROUNDUP
NATIONAL WEATHER SERVICE SALT LAKE CITY UT
1200 PM MDT SUN AUG 30 2015

UTZ001>011-023>025-301900-

NORTHERN UTAH

CITY           SKY/WX    TMP DP  RH WIND       PRES   REMARKS
BRIGHAM CITY   MOSUNNY   82  42  24 CALM      30.01S
HILL AFB       PTSUNNY   80  48  33 VRB7      30.04S
LOGAN          SUNNY     78  46  32 NE5       30.02F
OGDEN          PTSUNNY   81  49  32 W5        30.02R
PROVO AIRPORT  PTSUNNY   82  52  34 CALM      30.03F
SALT LAKE CITY PTSUNNY   79  47  32 N12       30.00S
VERNAL         PTSUNNY   78  36  21 SE6       30.11F
WENDOVER       PTSUNNY   81  39  22 SW5       30.02F
HEBER CITY     CLOUDY    82  45  26 W16       30.09F
WEST JORDAN    MOSUNNY   81  50  34 NW12      30.02S

$$

UTZ012>022-026-027-301900-

SOUTHERN/CENTRAL UTAH

CITY           SKY/WX    TMP DP  RH WIND       PRES   REMARKS
BLANDING       MOSUNNY   79  45  29 SE7       30.31S
BRYCE CANYON   PTSUNNY   74  49  41 S15       30.33S
CEDAR CITY     PTSUNNY   81  44  27 S20G29    30.14S
DELTA          PTSUNNY   84  43  24 SW15G25   30.05S
HANKSVILLE     SUNNY     90  46  22 S18       30.05F
MILFORD        PTSUNNY   87  44  22 SW25G33   30.07F
MOAB/CYNLANDS  MOSUNNY   89  45  21 CALM      30.06F
PRICE          MOSUNNY   82  39  21 E7        30.15F
ST GEORGE      CLOUDY    93  52  24 NW7       29.97S HX  90
KANAB          PTSUNNY   82  55  39 S5        30.19F

$$

REGIONAL REPORTS     COLORADO/ARIZONA

CITY           SKY/WX    TMP DP  RH WIND       PRES   REMARKS
CRAIG, CO      MOSUNNY   87  40  19 W17G23    30.16F
GRAND JUNCTION SUNNY     84  44  24 S7        30.10F
RIFLE          MOSUNNY   82  43  25 VRB3      30.16F
MONTROSE       SUNNY     83  46  27 N7        30.20F
CORTEZ         PTSUNNY   83  47  28 SW10      30.24F
PAGE, AZ       CLOUDY    87  50  27 N8        30.08F
GRAND CANYON   PTSUNNY   77  53  43 SW13      30.28F
KINGMAN        PTSUNNY   92  50  23 S16G22    30.02F
FLAGSTAFF      MOSUNNY   75  54  47 SW13      30.33F

$$

REGIONAL REPORTS    NEVADA/IDAHO/WYOMING

CITY           SKY/WX    TMP DP  RH WIND       PRES   REMARKS
LAS VEGAS, NV  PTSUNNY   96  42  15 S12G20    29.87S HX  92
ELY            MOSUNNY   80  30  16 SW16G33   30.12S
ELKO           SUNNY     76  35  22 W13G24    30.10R
POCATELLO, ID  MOSUNNY   76  47  35 SW16G22   30.05F
BURLEY         SUNNY     72  41  32 W10       30.04F
EVANSTON, WY   CLOUDY    75  40  28 W22G29    30.17F
ROCK SPRINGS   CLOUDY    79  41  25 SW16      30.15F
KEMMERER       MOSUNNY   77  36  22 SW15G22   30.19F

$$



USA.gov is the U.S. government's official web portal to all federal, state and local government web resources and services.